DW9776 Weather Reports


time (UTC)temp
F
wind
direction
speed
knots
gust
knots
rain 1hr
in
rain 24hr
in
rain mn
in
humidity
%
barometer
mb
20260507212400 51 223 1.7 2.6 0.00 0.00 0.00 80 1016.2
20260507211902 51 51 1.7 3.5 0.00 0.00 0.00 80 1016.2
20260507211357 51 145 0.9 3.5 0.00 0.00 0.00 80 1016.2
20260507210856 51 130 0.9 3.5 0.00 0.00 0.00 80 1016.3
20260507210617 51 124 0.9 2.6 0.00 0.00 0.00 80 1016.4
20260507205852 51 35 0.9 2.6 0.00 0.00 0.00 80 1016.4
20260507205348 51 76 0.9 2.6 0.00 0.00 0.00 80 1016.3
20260507204844 52 152 0.9 3.5 0.00 0.00 0.00 79 1016.4
20260507204827 52 269 1.7 3.5 0.00 0.00 0.00 79 1016.3
20260507203840 52 195 0.9 3.5 0.00 0.00 0.00 78 1016.3
20260507203340 52 117 1.7 3.5 0.00 0.00 0.00 78 1016.3
20260507202836 53 269 0.9 3.5 0.00 0.00 0.00 77 1016.2
20260507202601 53 13 0.9 7.0 0.00 0.00 0.00 76 1016.1
20260507201828 53 102 1.7 7.0 0.00 0.00 0.00 75 1016.1
20260507201323 53 305 1.7 5.2 0.00 0.00 0.00 74 1016.1
20260507201312 54 105 0.9 4.3 0.00 0.00 0.00 72 1016.0
20260507200319 54 89 1.7 4.3 0.00 0.00 0.00 72 1015.9
20260507195815 54 76 1.7 3.5 0.00 0.00 0.00 72 1015.8
20260507195540 54 135 1.7 3.5 0.00 0.00 0.00 72 1015.7
20260507194812 54 89 1.7 3.5 0.00 0.00 0.00 71 1015.8
20260507194312 54 223 1.7 3.5 0.00 0.00 0.00 71 1015.7
20260507194035 54 135 1.7 3.5 0.00 0.00 0.00 71 1015.7
20260507193307 54 145 1.7 3.5 0.00 0.00 0.00 71 1015.6
20260507192803 55 105 1.7 2.6 0.00 0.00 0.00 70 1015.6
20260507192306 55 135 0.9 2.6 0.00 0.00 0.00 70 1015.6
20260507191800 55 135 1.7 2.6 0.00 0.00 0.00 69 1015.6
20260507191256 55 253 0.9 4.3 0.00 0.00 0.00 69 1015.6
20260507190756 55 223 0.9 4.3 0.00 0.00 0.00 69 1015.6
20260507190251 55 1 0.9 3.5 0.00 0.00 0.00 69 1015.6
20260507190233 55 218 0.9 3.5 0.00 0.00 0.00 68 1015.6
20260507185242 55 79 0.9 4.3 0.00 0.00 0.00 68 1015.6
20260507185005 55 295 1.7 4.3 0.00 0.00 0.00 68 1015.5
20260507184238 55 67 0.9 3.5 0.00 0.00 0.00 68 1015.5
20260507183734 55 223 1.7 4.3 0.00 0.00 0.00 68 1015.5
20260507183235 56 240 0.9 4.3 0.00 0.00 0.00 67 1015.5
20260507183214 56 1 0.9 5.2 0.00 0.00 0.00 67 1015.5
20260507182230 56 9 1.7 5.2 0.00 0.00 0.00 66 1015.4
20260507181726 56 149 1.7 5.2 0.00 0.00 0.00 66 1015.4
20260507181712 57 102 0.9 7.0 0.00 0.00 0.00 66 1015.3
20260507180722 57 216 2.6 7.8 0.00 0.00 0.00 65 1015.3
20260507180218 57 252 2.6 7.8 0.00 0.00 0.00 65 1015.2
20260507175719 56 250 2.6 7.0 0.00 0.00 0.00 65 1015.3
20260507175439 56 269 1.7 5.2 0.00 0.00 0.00 66 1015.4
20260507174714 56 236 2.6 5.2 0.00 0.00 0.00 65 1015.3
20260507174210 56 252 1.7 13.0 0.00 0.00 0.00 66 1015.3
20260507173710 56 145 1.7 7.8 0.00 0.00 0.00 67 1015.4
20260507173437 56 39 2.6 7.0 0.00 0.00 0.00 67 1015.3
20260507172702 56 223 2.6 7.0 0.00 0.00 0.00 66 1015.4
20260507172203 56 108 1.7 7.0 0.00 0.00 0.00 66 1015.4
20260507171658 56 230 1.7 7.0 0.00 0.00 0.00 67 1015.4
20260507171158 56 1 1.7 8.7 0.00 0.00 0.00 67 1015.5
20260507170653 56 187 2.6 8.7 0.00 0.00 0.00 67 1015.3
20260507170149 56 46 3.5 8.7 0.00 0.00 0.00 66 1015.3
20260507165650 56 126 1.7 5.2 0.00 0.00 0.00 66 1015.3
20260507165406 56 46 2.6 5.2 0.00 0.00 0.00 66 1015.4
20260507164645 56 314 1.7 9.6 0.00 0.00 0.00 65 1015.3
20260507164141 56 223 3.5 9.6 0.00 0.00 0.00 65 1015.4
20260507163905 57 89 1.7 5.2 0.00 0.00 0.00 65 1015.4
20260507163137 57 206 1.7 5.2 0.00 0.00 0.00 64 1015.3
20260507162637 57 28 1.7 7.0 0.00 0.00 0.00 63 1015.3
20260507162133 57 248 3.5 7.0 0.00 0.00 0.00 62 1015.3
20260507161858 57 72 1.7 7.0 0.00 0.00 0.00 62 1015.3
20260507161130 57 223 1.7 6.1 0.00 0.00 0.00 61 1015.3
20260507160620 58 329 2.6 6.1 0.00 0.00 0.00 61 1015.3
20260507160115 58 314 1.7 7.0 0.00 0.00 0.00 61 1015.1
20260507155611 58 269 2.6 7.0 0.00 0.00 0.00 59 1015.2
20260507155329 59 135 2.6 7.8 0.00 0.00 0.00 60 1015.2
20260507154601 59 243 3.5 9.6 0.00 0.00 0.00 61 1015.2
20260507154057 58 82 2.6 9.6 0.00 0.00 0.00 60 1015.2
20260507153553 60 233 2.6 7.8 0.00 0.00 0.00 58 1015.3
20260507153053 60 250 2.6 14.8 0.00 0.00 0.00 56 1015.3
20260507152553 60 158 4.3 14.8 0.00 0.00 0.00 57 1015.2
20260507152307 60 259 1.7 7.8 0.00 0.00 0.00 57 1015.2
20260507151551 60 203 3.5 10.4 0.00 0.00 0.00 56 1015.2
20260507151047 60 274 3.5 10.4 0.00 0.00 0.00 55 1015.2
20260507150546 61 191 3.5 11.3 0.00 0.00 0.00 53 1015.2
20260507150042 60 213 5.2 11.3 0.00 0.00 0.00 53 1015.2
20260507145803 61 216 3.5 9.6 0.00 0.00 0.00 54 1015.2
20260507145301 61 236 3.5 7.8 0.00 0.00 0.00 55 1015.3
20260507144534 60 46 2.6 7.0 0.00 0.00 0.00 57 1015.3
20260507144034 60 260 3.5 9.6 0.00 0.00 0.00 56 1015.3
20260507143529 59 98 3.5 9.6 0.00 0.00 0.00 57 1015.4
20260507143025 58 152 3.5 9.6 0.00 0.00 0.00 59 1015.5
20260507142522 58 269 3.5 7.8 0.00 0.00 0.00 58 1015.6
20260507142238 58 303 3.5 8.7 0.00 0.00 0.00 58 1015.6
20260507141516 59 89 1.7 10.4 0.00 0.00 0.00 58 1015.6
20260507141012 60 260 2.6 12.2 0.00 0.00 0.00 58 1015.7
20260507140512 60 76 2.6 12.2 0.00 0.00 0.00 57 1015.7
20260507140009 59 82 2.6 7.0 0.00 0.00 0.00 58 1015.7
20260507135508 58 142 3.5 8.7 0.00 0.00 0.00 58 1015.7
20260507135005 58 238 2.6 8.7 0.00 0.00 0.00 60 1015.8
20260507134507 58 257 1.7 8.7 0.00 0.00 0.00 62 1015.8
20260507134001 58 82 2.6 8.7 0.00 0.00 0.00 61 1015.7
20260507133456 58 76 3.5 8.7 0.00 0.00 0.00 63 1015.8
20260507132952 56 299 2.6 7.8 0.00 0.00 0.00 65 1015.8
20260507132453 56 60 1.7 7.8 0.00 0.00 0.00 65 1015.9
20260507131947 56 271 2.6 7.8 0.00 0.00 0.00 65 1015.8
20260507131705 56 89 1.7 7.8 0.00 0.00 0.00 64 1015.9
20260507130939 56 0 2.6 7.0 0.00 0.00 0.00 64 1015.8
20260507130434 57 1 1.7 7.0 0.00 0.00 0.00 64 1016.0
20260507125934 57 223 2.6 6.1 0.00 0.00 0.00 63 1015.9
20260507125430 57 63 2.6 6.1 0.00 0.00 0.00 63 1016.0
20260507124931 57 120 1.7 6.1 0.00 0.00 0.00 64 1016.0
20260507124426 56 75 1.7 6.1 0.00 0.00 0.00 65 1016.2
20260507124410 55 108 1.7 5.2 0.00 0.00 0.00 65 1016.2
20260507123422 55 279 1.7 4.3 0.00 0.00 0.00 65 1016.3
20260507122918 55 240 2.6 5.2 0.00 0.00 0.00 65 1016.3
20260507122420 54 223 2.6 5.2 0.00 0.00 0.00 65 1016.3
20260507121916 54 53 1.7 4.3 0.00 0.00 0.00 67 1016.3
20260507121412 54 127 1.7 3.5 0.00 0.00 0.00 66 1016.4
20260507120910 53 259 1.7 6.1 0.00 0.00 0.00 67 1016.3
20260507120406 53 245 3.5 9.6 0.00 0.00 0.00 66 1016.4
20260507115902 53 124 2.6 9.6 0.00 0.00 0.00 66 1016.4
20260507115402 53 178 1.7 7.8 0.00 0.00 0.00 67 1016.4
20260507114857 53 314 0.9 6.1 0.00 0.00 0.00 68 1016.5
20260507114354 53 258 1.7 6.1 0.00 0.00 0.00 67 1016.5
20260507113848 53 201 1.7 7.0 0.00 0.00 0.00 67 1016.4
20260507113348 53 228 0.9 7.0 0.00 0.00 0.00 66 1016.4
20260507112844 53 260 2.6 7.0 0.00 0.00 0.00 64 1016.4
20260507112345 54 269 2.6 6.1 0.00 0.00 0.00 64 1016.4
20260507111839 54 28 1.7 5.2 0.00 0.00 0.00 65 1016.4
20260507111340 54 46 2.6 6.1 0.00 0.00 0.00 64 1016.4
20260507110836 54 248 3.5 6.1 0.00 0.00 0.00 64 1016.4
20260507110337 55 199 1.7 6.1 0.00 0.00 0.00 64 1016.4
20260507105832 55 1 2.6 6.1 0.00 0.00 0.00 63 1016.3
20260507105333 55 240 1.7 8.7 0.00 0.00 0.00 65 1016.4
20260507104828 55 209 3.5 8.7 0.00 0.00 0.00 64 1016.3
20260507104329 55 40 2.6 7.0 0.00 0.00 0.00 64 1016.3
20260507103827 56 213 1.7 6.1 0.00 0.00 0.00 64 1016.3
20260507103538 56 269 1.7 6.1 0.00 0.00 0.00 64 1016.3
20260507102820 56 145 1.7 7.0 0.00 0.00 0.00 62 1016.2
20260507102316 55 300 2.6 7.0 0.00 0.00 0.00 63 1016.2
20260507101817 55 72 1.7 5.2 0.00 0.00 0.00 64 1016.0
20260507101312 55 129 1.7 5.2 0.00 0.00 0.00 64 1016.0
20260507100814 56 246 1.7 5.2 0.00 0.00 0.00 63 1016.0
20260507100310 56 303 1.7 9.6 0.00 0.00 0.00 63 1016.0
20260507095806 56 231 1.7 9.6 0.00 0.00 0.00 65 1016.0
20260507095306 55 272 1.7 7.0 0.00 0.00 0.00 65 1016.1
20260507094801 54 250 3.5 7.0 0.00 0.00 0.00 66 1016.2
20260507094301 55 269 1.7 6.1 0.00 0.00 0.00 68 1016.2
20260507093756 55 240 2.6 7.0 0.00 0.00 0.00 66 1016.2
20260507093257 54 39 3.5 7.0 0.00 0.00 0.00 67 1016.2
20260507092753 54 107 2.6 6.1 0.00 0.00 0.00 67 1016.2
20260507092518 54 102 1.7 6.1 0.00 0.00 0.00 67 1016.3
20260507091749 54 259 1.7 6.1 0.00 0.00 0.00 68 1016.2
20260507091244 53 56 2.6 6.1 0.00 0.00 0.00 67 1016.3
20260507090745 53 140 1.7 6.1 0.00 0.00 0.00 68 1016.4
20260507090240 53 89 2.6 5.2 0.00 0.00 0.00 68 1016.4
20260507085741 53 197 1.7 6.1 0.00 0.00 0.00 69 1016.4
20260507085727 52 223 1.7 6.1 0.00 0.00 0.00 70 1016.4
20260507084953 52 259 2.6 6.1 0.00 0.00 0.00 69 1016.5
20260507084232 52 117 1.7 5.2 0.00 0.00 0.00 71 1016.6
20260507083732 51 83 2.6 5.2 0.00 0.00 0.00 71 1016.6
20260507083229 51 89 0.9 6.1 0.00 0.00 0.00 72 1016.6
20260507082728 51 46 1.7 6.1 0.00 0.00 0.00 72 1016.6
20260507082225 50 127 1.7 3.5 0.00 0.00 0.00 73 1016.6
20260507081945 50 23 1.7 3.5 0.00 0.00 0.00 73 1016.6
20260507081216 49 76 1.7 4.3 0.00 0.00 0.00 75 1016.6
20260507080718 49 70 1.7 7.0 0.00 0.00 0.00 76 1016.7
20260507080214 48 135 1.7 7.0 0.00 0.00 0.00 79 1016.7
20260507075712 47 152 0.9 5.2 0.00 0.00 0.00 82 1016.8
20260507075208 46 206 1.7 4.3 0.00 0.00 0.00 84 1016.8
20260507074709 45 206 0.9 2.6 0.00 0.00 0.00 86 1016.9
20260507074204 45 56 0.0 2.6 0.00 0.00 0.00 87 1016.9
20260507073701 44 53 0.0 2.6 0.00 0.00 0.00 88 1016.9
20260507073156 44 1 1.7 2.6 0.00 0.00 0.00 88 1016.9
20260507072652 44 28 1.7 2.6 0.00 0.00 0.00 89 1016.8
20260507072146 43 51 1.7 2.6 0.00 0.00 0.00 89 1016.8
20260507071643 43 28 0.0 1.7 0.00 0.00 0.00 89 1016.9
20260507071138 43 269 0.9 2.6 0.00 0.00 0.00 90 1016.9
20260507070636 42 23 1.7 2.6 0.00 0.00 0.00 90 1016.9
20260507070133 42 28 0.9 2.6 0.00 0.00 0.00 90 1016.8
20260507065629 42 35 0.9 2.6 0.00 0.00 0.00 90 1016.9
20260507065130 42 63 0.9 1.7 0.00 0.00 0.00 90 1016.9
20260507064626 42 40 0.9 1.7 0.00 0.00 0.00 90 1016.9
20260507064127 42 35 0.9 1.7 0.00 0.00 0.00 90 1016.9
20260507063616 42 223 0.0 1.7 0.00 0.00 0.00 90 1016.9
20260507063340 41 223 0.0 2.6 0.00 0.00 0.00 91 1017.0
20260507062612 41 28 0.9 2.6 0.00 0.00 0.00 91 1017.0
20260507062109 41 331 1.7 1.7 0.00 0.00 0.00 91 1017.0
20260507061609 41 20 0.9 1.7 0.00 0.00 0.00 91 1017.0
20260507061109 41 46 0.9 1.7 0.00 0.00 0.00 91 1017.0
20260507060604 40 89 0.0 0.9 0.00 0.00 0.00 91 1017.0
20260507060100 40 250 0.0 0.9 0.00 0.00 0.00 91 1017.1
20260507055825 40 46 0.0 1.7 0.00 0.00 0.00 91 1017.1
20260507055057 40 28 0.9 1.7 0.00 0.00 0.00 91 1017.1
20260507054553 40 1 0.0 1.7 0.00 0.00 0.00 91 1017.1
20260507054047 40 46 0.0 1.7 0.00 0.00 0.00 90 1017.1
20260507053547 40 46 0.0 1.7 0.00 0.00 0.00 90 1017.1
20260507053045 40 135 0.9 1.7 0.00 0.00 0.00 90 1017.1
20260507052756 40 46 0.9 1.7 0.00 0.00 0.00 90 1017.2
20260507052040 40 35 0.9 1.7 0.00 0.00 0.00 90 1017.2
20260507051535 40 35 0.9 1.7 0.00 0.00 0.00 90 1017.1
20260507051253 40 46 0.0 1.7 0.00 0.00 0.00 90 1017.1
20260507050531 39 56 0.9 1.7 0.00 0.00 0.00 90 1017.1
20260507050026 39 46 0.9 1.7 0.00 0.00 0.00 89 1017.1
20260507045527 39 63 0.9 1.7 0.00 0.00 0.00 89 1017.0
20260507045023 39 35 0.9 1.7 0.00 0.00 0.00 89 1017.1
20260507044519 39 46 0.9 1.7 0.00 0.00 0.00 89 1017.0
20260507044238 39 46 0.9 1.7 0.00 0.00 0.00 89 1017.0
20260507043951 40 63 0.9 1.7 0.00 0.00 0.00 89 1016.9
20260507043453 40 46 1.7 1.7 0.00 0.00 0.00 89 1016.9
20260507042507 40 63 0.0 1.7 0.00 0.00 0.00 89 1016.9
20260507042001 39 314 0.0 0.9 0.00 0.00 0.00 89 1016.9
20260507041503 39 46 0.0 0.9 0.00 0.00 0.00 89 1016.9
20260507040949 39 89 0.0 0.9 0.00 0.00 0.00 89 1016.8
20260507040448 39 223 0.0 0.9 0.00 0.00 0.00 89 1016.9
20260507035944 39 46 0.0 0.9 0.00 0.00 0.00 89 1016.9
20260507035441 39 1 0.0 1.7 0.00 0.00 0.00 89 1016.8
20260507035144 39 89 0.9 1.7 0.00 0.00 0.00 89 1016.9
20260507034421 39 72 0.9 1.7 0.00 0.00 0.00 88 1016.9
20260507033916 39 89 0.9 0.9 0.00 0.00 0.00 88 1017.0
20260507033416 39 46 0.0 0.9 0.00 0.00 0.00 88 1017.0
20260507033136 39 89 0.0 0.9 0.00 0.00 0.00 88 1017.0
20260507032408 39 46 0.9 0.9 0.00 0.00 0.00 88 1017.0
20260507031910 39 46 0.0 0.9 0.00 0.00 0.00 88 1017.1
20260507031405 39 46 0.0 1.7 0.00 0.00 0.00 88 1017.0
20260507030856 39 46 0.9 1.7 0.00 0.00 0.00 88 1017.0
20260507030350 39 89 0.0 1.7 0.00 0.00 0.00 88 1017.1
20260507025846 38 1 0.0 0.9 0.00 0.00 0.00 88 1017.1
20260507025347 38 46 0.0 0.9 0.00 0.00 0.00 87 1017.0
20260507024842 38 46 0.0 0.9 0.00 0.00 0.00 87 1017.1
20260507024342 38 223 0.0 1.7 0.00 0.00 0.00 87 1017.1
20260507023838 38 46 0.0 1.7 0.00 0.00 0.00 87 1017.1
20260507023339 38 89 0.0 0.9 0.00 0.00 0.00 87 1017.2
20260507022830 38 56 0.0 1.7 0.00 0.00 0.00 87 1017.1
20260507022552 38 269 0.9 1.7 0.00 0.00 0.00 87 1017.2
20260507021824 38 46 0.9 1.7 0.00 0.00 0.00 86 1017.2
20260507021322 38 223 0.0 1.7 0.00 0.00 0.00 86 1017.3
20260507021043 38 1 0.0 1.7 0.00 0.00 0.00 86 1017.2
20260507020312 38 46 0.0 1.7 0.00 0.00 0.00 86 1017.3
20260507020034 38 178 0.9 1.7 0.00 0.00 0.00 86 1017.3
20260507015306 38 63 0.9 1.7 0.00 0.00 0.00 86 1017.4
20260507015017 38 89 0.9 2.6 0.00 0.00 0.00 86 1017.3
20260507014254 38 127 0.9 2.6 0.00 0.00 0.00 86 1017.4
20260507013751 38 89 0.9 2.6 0.00 0.00 0.00 87 1017.4
20260507013246 38 135 0.9 2.6 0.00 0.00 0.00 87 1017.5
20260507013011 38 140 0.9 1.7 0.00 0.00 0.00 86 1017.5
20260507012243 38 46 0.0 1.7 0.00 0.00 0.00 86 1017.5
20260507011959 38 63 0.0 1.7 0.00 0.00 0.00 86 1017.5
20260507011233 38 135 0.9 1.7 0.00 0.00 0.00 86 1017.4
20260507010728 38 46 0.0 1.7 0.00 0.00 0.00 86 1017.5
20260507010228 38 46 0.9 1.7 0.00 0.00 0.00 86 1017.5
20260507005725 38 89 0.0 1.7 0.00 0.00 0.00 85 1017.5
20260507005215 38 135 0.9 1.7 0.00 0.00 0.00 85 1017.6
20260507004710 38 28 0.9 1.7 0.00 0.00 0.00 85 1017.6
20260507004212 38 1 0.0 1.7 0.00 0.00 0.00 84 1017.6
20260507003708 38 46 0.0 1.7 0.00 0.00 0.00 84 1017.7
20260507003159 38 46 0.0 1.7 0.00 0.00 0.00 84 1017.8
20260507002658 38 269 0.0 1.7 0.00 0.00 0.00 84 1017.7
20260507002153 38 213 0.0 1.7 0.00 0.00 0.00 84 1017.7
20260507001654 38 89 0.0 1.7 0.00 0.00 0.00 83 1017.8
20260507001150 38 223 0.0 1.7 0.00 0.00 0.00 83 1017.8
20260507000650 38 46 0.9 2.6 0.00 0.00 0.00 82 1017.8
20260507000405 38 206 0.9 2.6 0.00 0.00 0.00 82 1017.9
20260506235636 39 145 0.0 1.7 0.00 0.00 0.00 82 1017.9
20260506235138 39 314 0.0 1.7 0.00 0.00 0.00 81 1017.9
20260506234856 39 89 0.9 1.7 0.00 0.00 0.00 81 1018.0
20260506234133 39 63 0.0 1.7 0.00 0.00 0.00 81 1018.0
20260506233619 39 46 0.0 1.7 0.00 0.00 0.00 81 1018.0
20260506233119 39 135 0.9 1.7 0.00 0.00 0.00 81 1018.0
20260506232615 39 135 0.9 0.9 0.00 0.00 0.00 80 1018.0
20260506232110 40 314 0.0 0.9 0.00 0.00 0.00 80 1018.0
20260506231610 40 46 0.0 1.7 0.00 0.00 0.00 80 1018.0
20260506231106 40 56 0.0 1.7 0.00 0.00 0.00 79 1017.9
20260506230607 40 46 0.9 2.6 0.00 0.00 0.00 79 1018.0
20260506230103 40 240 0.9 2.6 0.00 0.00 0.00 79 1017.9
20260506225558 40 223 0.9 2.6 0.00 0.00 0.00 79 1017.9
20260506225053 39 240 0.9 2.6 0.00 0.00 0.00 79 1018.0
20260506224549 39 178 0.9 1.7 0.00 0.00 0.00 79 1018.0
20260506224530 39 206 0.9 1.7 0.00 0.00 0.00 79 1018.0
20260506223545 40 223 0.9 1.7 0.00 0.00 0.00 79 1018.0
20260506223040 40 269 0.0 1.7 0.00 0.00 0.00 78 1018.0
20260506222536 40 1 0.9 1.7 0.00 0.00 0.00 78 1018.1
20260506222038 40 1 0.0 1.7 0.00 0.00 0.00 77 1018.1
20260506221533 40 314 0.9 1.7 0.00 0.00 0.00 77 1018.1
20260506221029 40 46 0.9 2.6 0.00 0.00 0.00 77 1018.0
20260506220525 41 223 0.9 2.6 0.00 0.00 0.00 76 1018.0
20260506220254 41 218 0.9 2.6 0.00 0.00 0.00 76 1018.0
20260506215520 41 206 0.0 2.6 0.00 0.00 0.00 76 1018.0
20260506215021 41 218 0.9 3.5 0.00 0.00 0.00 76 1018.1
20260506214731 41 223 0.9 3.5 0.00 0.00 0.00 76 1018.0
20260506214013 41 223 0.9 1.7 0.00 0.00 0.00 75 1018.0
20260506213957 41 197 0.9 1.7 0.00 0.00 0.00 75 1018.1
20260506213009 41 253 0.9 1.7 0.00 0.00 0.00 75 1018.0